{"data":{"norad_id":52623,"intl_designator":"2022-052AB","name":"STARLINK-3986","alt_names":[],"object_type":"PAYLOAD","status":"ACTIVE","operator":null,"country":"US","launch_date":"2022-05-14","launch_site_code":"AFETR","launch_vehicle":null,"mission":null,"orbit_class":"UNKNOWN","rcs_meters":null,"size_class":null,"mass_kg":null,"dimensions":null,"purposes":["comms"],"wikipedia_slug":null,"has_3d_model":false,"image_url":null,"decayed_at":null,"tle_current":{"epoch":"2026-05-25T02:31:22.540800Z","epoch_age_seconds":72947,"freshness":"FRESH","line1":"1 52623U 22052AB  26145.10512200  .00000813  00000+0  69105-4 0  9994","line2":"2 52623  53.2160 286.0750 0000300  85.6143 274.4884 15.08841013222526","mean_motion":15.08841013,"eccentricity":3.0e-5,"inclination_deg":53.216,"raan_deg":286.075,"arg_perigee_deg":85.6143,"mean_anomaly_deg":274.4884,"bstar":6.9105e-5,"rev_number":22252,"period_min":95.437490603259,"perigee_km":539.53275631131,"apogee_km":539.94782894887,"semimajor_km":6917.8772926301,"source":"CELESTRAK","updated_at":"2026-05-25T13:38:17.202239Z"}}}